QPF
0.00 0.00 0.00 0.00 0.00 0.00 0.00 0.00 0.00 0.01 0.01 0.01 0.01 0.01 0.01 0.02 0.02 0.06 0.10 0.08 0.05 0.05 0.06 0.04 0.04 0.03 0.02 0.02 0.02 0.03 0.03 0.03 0.03 0.03 0.03 0.04 0.04 0.06 0.08 0.07 0.05 0.04 0.04 0.03
0.00 0.00 0.00 0.00 0.00 0.00 0.00 0.00 0.01 0.01 0.01 0.01 0.01 0.02 0.01 0.02 0.04 0.06 0.09 0.12 0.12 0.10 0.10 0.07 0.07 0.06 0.03 0.02 0.03 0.02 0.02 0.02 0.02 0.03 0.04 0.05 0.06 0.07 0.08 0.06 0.05 0.04 0.04 0.03
0.00 0.00 0.01 0.00 0.00 0.00 0.00 0.00 0.01 0.01 0.02 0.02 0.03 0.03 0.02 0.02 0.04 0.05 0.11 0.13 0.10 0.08 0.07 0.07 0.07 0.06 0.04 0.04 0.03 0.03 0.02 0.01 0.02 0.03 0.04 0.05 0.05 0.05 0.04 0.04 0.04 0.04 0.04 0.03
0.00 0.01 0.01 0.01 0.01 0.00 0.00 0.00 0.01 0.01 0.02 0.02 0.03 0.03 0.03 0.04 0.06 0.09 0.10 0.07 0.05 0.05 0.05 0.06 0.08 0.07 0.06 0.05 0.04 0.03 0.02 0.01 0.02 0.03 0.04 0.05 0.05 0.05 0.05 0.04 0.04 0.04 0.04 0.04
0.01 0.01 0.01 0.01 0.01 0.01 0.01 0.01 0.01 0.01 0.02 0.02 0.02 0.03 0.03 0.04 0.07 0.11 0.09 0.06 0.05 0.06 0.09 0.11 0.10 0.09 0.07 0.05 0.05 0.04 0.02 0.01 0.01 0.02 0.02 0.03 0.04 0.05 0.05 0.05 0.05 0.05 0.05 0.05
0.01 0.01 0.01 0.01 0.02 0.02 0.01 0.02 0.02 0.01 0.01 0.02 0.04 0.05 0.05 0.07 0.12 0.12 0.14 0.13 0.12 0.12 0.10 0.07 0.06 0.05 0.05 0.05 0.04 0.03 0.02 0.01 0.02 0.02 0.03 0.04 0.05 0.06 0.07 0.06 0.05 0.06 0.05 0.05
0.01 0.02 0.02 0.01 0.02 0.02 0.02 0.02 0.02 0.02 0.02 0.02 0.02 0.04 0.07 0.09 0.09 0.07 0.10 0.15 0.16 0.13 0.09 0.07 0.04 0.04 0.04 0.04 0.03 0.02 0.02 0.02 0.02 0.02 0.04 0.05 0.06 0.07 0.07 0.06 0.05 0.03 0.03 0.03
0.03 0.03 0.03 0.02 0.02 0.04 0.03 0.02 0.02 0.02 0.03 0.03 0.03 0.03 0.05 0.09 0.10 0.07 0.09 0.09 0.08 0.08 0.07 0.06 0.05 0.04 0.04 0.04 0.04 0.04 0.04 0.04 0.05 0.05 0.05 0.06 0.06 0.06 0.06 0.04 0.03 0.02 0.02 0.02
0.04 0.04 0.03 0.02 0.04 0.04 0.02 0.02 0.02 0.02 0.04 0.05 0.05 0.05 0.05 0.06 0.07 0.06 0.06 0.06 0.06 0.05 0.04 0.04 0.05 0.05 0.06 0.07 0.07 0.06 0.06 0.07 0.07 0.07 0.07 0.06 0.06 0.06 0.05 0.04 0.03 0.03 0.02 0.01
0.05 0.05 0.03 0.02 0.03 0.04 0.02 0.01 0.01 0.02 0.04 0.09 0.09 0.06 0.05 0.05 0.07 0.06 0.04 0.04 0.05 0.04 0.04 0.05 0.07 0.07 0.07 0.07 0.06 0.05 0.04 0.04 0.04 0.05 0.04 0.03 0.04 0.04 0.04 0.03 0.02 0.02 0.01 0.01
0.04 0.03 0.02 0.01 0.02 0.02 0.02 0.01 0.01 0.01 0.01 0.02 0.04 0.05 0.04 0.03 0.04 0.04 0.04 0.04 0.05 0.05 0.04 0.04 0.04 0.05 0.05 0.06 0.06 0.05 0.05 0.05 0.04 0.04 0.03 0.03 0.02 0.02 0.02 0.02 0.02 0.02 0.01 0.02
0.02 0.01 0.01 0.01 0.01 0.01 0.01 0.01 0.01 0.00 0.01 0.01 0.02 0.02 0.02 0.03 0.03 0.02 0.02 0.02 0.02 0.02 0.02 0.03 0.03 0.04 0.04 0.05 0.05 0.05 0.04 0.03 0.04 0.03 0.02 0.02 0.03 0.03 0.02 0.02 0.01 0.01 0.02 0.02
0.02 0.01 0.01 0.01 0.01 0.01 0.02 0.03 0.02 0.01 0.01 0.01 0.01 0.02 0.03 0.04 0.03 0.02 0.02 0.02 0.01 0.02 0.02 0.02 0.03 0.04 0.04 0.05 0.04 0.04 0.04 0.05 0.05 0.04 0.04 0.05 0.06 0.06 0.05 0.03 0.03 0.03 0.03 0.03
0.02 0.03 0.03 0.02 0.02 0.02 0.03 0.04 0.04 0.03 0.02 0.02 0.02 0.02 0.02 0.02 0.02 0.03 0.03 0.03 0.02 0.02 0.02 0.03 0.04 0.04 0.04 0.04 0.04 0.04 0.05 0.05 0.05 0.05 0.05 0.06 0.07 0.06 0.05 0.04 0.05 0.07 0.06 0.05
0.04 0.05 0.07 0.05 0.03 0.03 0.05 0.07 0.10 0.09 0.09 0.05 0.03 0.03 0.02 0.03 0.03 0.03 0.03 0.03 0.03 0.03 0.04 0.04 0.04 0.03 0.04 0.03 0.04 0.04 0.05 0.07 0.08 0.07 0.07 0.06 0.07 0.05 0.03 0.02 0.05 0.07 0.06 0.05
0.03 0.04 0.05 0.05 0.04 0.06 0.07 0.11 0.15 0.14 0.13 0.09 0.05 0.04 0.04 0.05 0.04 0.04 0.04 0.04 0.04 0.05 0.05 0.05 0.04 0.03 0.02 0.03 0.04 0.04 0.04 0.05 0.05 0.04 0.04 0.04 0.05 0.05 0.03 0.02 0.03 0.06 0.06 0.04
0.03 0.05 0.05 0.05 0.04 0.06 0.06 0.09 0.12 0.10 0.09 0.08 0.06 0.04 0.03 0.04 0.04 0.04 0.05 0.05 0.04 0.03 0.03 0.03 0.04 0.04 0.03 0.03 0.03 0.03 0.03 0.02 0.03 0.03 0.03 0.03 0.03 0.04 0.03 0.02 0.02 0.02 0.03 0.02
0.03 0.04 0.05 0.04 0.04 0.06 0.07 0.05 0.05 0.06 0.06 0.05 0.03 0.03 0.02 0.03 0.03 0.03 0.05 0.05 0.04 0.03 0.03 0.03 0.04 0.05 0.04 0.04 0.04 0.03 0.03 0.02 0.02 0.02 0.03 0.03 0.03 0.03 0.03 0.03 0.03 0.03 0.03 0.02
0.04 0.04 0.04 0.06 0.04 0.06 0.09 0.06 0.06 0.05 0.04 0.04 0.04 0.03 0.02 0.03 0.02 0.01 0.02 0.04 0.05 0.06 0.04 0.03 0.03 0.03 0.03 0.02 0.02 0.02 0.02 0.02 0.02 0.02 0.02 0.03 0.03 0.03 0.03 0.03 0.04 0.04 0.04 0.04
0.05 0.05 0.05 0.07 0.07 0.07 0.08 0.06 0.08 0.07 0.05 0.04 0.04 0.03 0.03 0.03 0.02 0.01 0.02 0.03 0.05 0.07 0.06 0.04 0.03 0.01 0.01 0.02 0.02 0.02 0.01 0.01 0.01 0.01 0.02 0.03 0.03 0.04 0.04 0.05 0.06 0.05 0.05 0.05
0.03 0.04 0.05 0.08 0.11 0.10 0.09 0.07 0.08 0.07 0.06 0.05 0.04 0.03 0.03 0.03 0.02 0.01 0.02 0.03 0.02 0.03 0.05 0.05 0.04 0.03 0.03 0.02 0.02 0.02 0.02 0.02 0.02 0.01 0.02 0.02 0.03 0.03 0.04 0.04 0.05 0.07 0.06 0.04
0.03 0.03 0.03 0.04 0.09 0.12 0.09 0.07 0.06 0.06 0.06 0.05 0.03 0.02 0.02 0.03 0.02 0.01 0.02 0.02 0.02 0.02 0.03 0.04 0.05 0.06 0.05 0.05 0.04 0.04 0.04 0.05 0.04 0.03 0.03 0.03 0.04 0.04 0.04 0.05 0.04 0.05 0.08 0.07
0.03 0.03 0.04 0.04 0.05 0.07 0.07 0.07 0.06 0.04 0.04 0.04 0.03 0.03 0.03 0.03 0.03 0.02 0.01 0.01 0.01 0.02 0.03 0.04 0.06 0.06 0.07 0.07 0.08 0.08 0.08 0.09 0.08 0.06 0.05 0.06 0.06 0.05 0.06 0.07 0.07 0.06 0.07 0.08
0.02 0.02 0.03 0.04 0.04 0.04 0.04 0.04 0.03 0.03 0.03 0.03 0.03 0.03 0.03 0.03 0.02 0.02 0.01 0.01 0.01 0.02 0.02 0.03 0.04 0.04 0.05 0.06 0.08 0.08 0.07 0.07 0.08 0.08 0.09 0.08 0.07 0.05 0.06 0.07 0.07 0.07 0.06 0.06
0.01 0.02 0.02 0.03 0.03 0.04 0.05 0.04 0.04 0.03 0.02 0.02 0.03 0.02 0.02 0.01 0.01 0.01 0.01 0.01 0.01 0.01 0.02 0.02 0.02 0.02 0.03 0.04 0.05 0.05 0.06 0.07 0.07 0.08 0.07 0.06 0.05 0.06 0.06 0.07 0.07 0.07 0.08 0.08
0.02 0.03 0.04 0.04 0.04 0.05 0.04 0.04 0.03 0.02 0.02 0.02 0.02 0.02 0.01 0.01 0.01 0.01 0.01 0.01 0.01 0.01 0.01 0.01 0.01 0.01 0.01 0.02 0.03 0.04 0.04 0.06 0.07 0.08 0.08 0.06 0.06 0.07 0.07 0.07 0.08 0.08 0.11 0.12
0.02 0.04 0.05 0.04 0.05 0.05 0.04 0.03 0.04 0.03 0.03 0.02 0.01 0.02 0.01 0.01 0.01 0.01 0.01 0.01 0.01 0.01 0.01 0.01 0.01 0.01 0.01 0.01 0.02 0.02 0.04 0.06 0.06 0.07 0.07 0.07 0.06 0.05 0.05 0.07 0.08 0.08 0.08 0.08
MSLP
1011.27 1011.40 1011.53 1011.67 1011.81 1011.93 1011.98 1011.93 1011.73 1011.36 1010.82 1010.12 1009.32 1008.47 1007.64 1006.89 1006.26 1005.79 1005.48 1005.33 1005.31 1005.40 1005.58 1005.82 1006.11 1006.45 1006.84 1007.27 1007.75 1008.25 1008.76 1009.27 1009.73 1010.14 1010.48 1010.73 1010.90 1011.00 1011.05 1011.07 1011.06 1011.06 1011.06 1011.08
1011.62 1011.65 1011.62 1011.53 1011.40 1011.24 1011.04 1010.79 1010.47 1010.06 1009.57 1008.99 1008.35 1007.66 1006.97 1006.30 1005.69 1005.17 1004.75 1004.44 1004.26 1004.19 1004.24 1004.40 1004.67 1005.04 1005.50 1006.02 1006.60 1007.21 1007.81 1008.37 1008.88 1009.32 1009.67 1009.94 1010.12 1010.25 1010.32 1010.37 1010.40 1010.43 1010.46 1010.50
1011.98 1011.92 1011.71 1011.40 1011.02 1010.59 1010.14 1009.69 1009.24 1008.78 1008.32 1007.83 1007.32 1006.77 1006.20 1005.62 1005.04 1004.49 1003.98 1003.55 1003.22 1003.01 1002.95 1003.03 1003.27 1003.66 1004.17 1004.77 1005.44 1006.13 1006.81 1007.43 1007.99 1008.45 1008.82 1009.10 1009.31 1009.46 1009.58 1009.66 1009.74 1009.82 1009.89 1009.97
1012.31 1012.14 1011.77 1011.26 1010.64 1009.97 1009.29 1008.65 1008.07 1007.56 1007.09 1006.67 1006.26 1005.84 1005.39 1004.89 1004.36 1003.80 1003.24 1002.72 1002.28 1001.97 1001.81 1001.83 1002.04 1002.43 1002.97 1003.64 1004.37 1005.13 1005.86 1006.53 1007.12 1007.61 1008.01 1008.31 1008.55 1008.73 1008.88 1009.02 1009.15 1009.28 1009.41 1009.53
1012.52 1012.23 1011.72 1011.02 1010.20 1009.32 1008.45 1007.65 1006.95 1006.37 1005.91 1005.53 1005.21 1004.90 1004.56 1004.16 1003.69 1003.16 1002.60 1002.04 1001.55 1001.17 1000.95 1000.92 1001.10 1001.48 1002.04 1002.73 1003.50 1004.29 1005.06 1005.77 1006.38 1006.90 1007.31 1007.63 1007.90 1008.11 1008.31 1008.50 1008.68 1008.87 1009.04 1009.21
1012.55 1012.13 1011.47 1010.62 1009.64 1008.60 1007.58 1006.65 1005.86 1005.23 1004.76 1004.43 1004.18 1003.97 1003.74 1003.45 1003.08 1002.62 1002.11 1001.57 1001.08 1000.68 1000.43 1000.38 1000.53 1000.90 1001.45 1002.14 1002.91 1003.72 1004.50 1005.21 1005.84 1006.36 1006.79 1007.13 1007.42 1007.67 1007.90 1008.13 1008.36 1008.59 1008.81 1009.01
1012.32 1011.77 1010.99 1010.02 1008.92 1007.76 1006.64 1005.63 1004.78 1004.13 1003.66 1003.37 1003.20 1003.09 1002.98 1002.81 1002.56 1002.22 1001.80 1001.34 1000.90 1000.53 1000.30 1000.24 1000.38 1000.72 1001.24 1001.91 1002.66 1003.45 1004.21 1004.91 1005.53 1006.05 1006.48 1006.84 1007.14 1007.42 1007.68 1007.94 1008.20 1008.45 1008.70 1008.93
1011.82 1011.16 1010.27 1009.22 1008.04 1006.83 1005.66 1004.61 1003.74 1003.08 1002.64 1002.39 1002.29 1002.28 1002.29 1002.26 1002.16 1001.97 1001.69 1001.35 1001.01 1000.71 1000.52 1000.48 1000.62 1000.94 1001.43 1002.05 1002.75 1003.48 1004.21 1004.87 1005.47 1005.98 1006.40 1006.76 1007.07 1007.35 1007.62 1007.90 1008.17 1008.44 1008.70 1008.93
1011.08 1010.31 1009.36 1008.27 1007.07 1005.85 1004.68 1003.64 1002.78 1002.14 1001.73 1001.52 1001.50 1001.58 1001.71 1001.83 1001.89 1001.86 1001.75 1001.57 1001.36 1001.17 1001.06 1001.06 1001.20 1001.50 1001.93 1002.49 1003.12 1003.79 1004.45 1005.06 1005.62 1006.10 1006.51 1006.86 1007.16 1007.45 1007.72 1007.99 1008.25 1008.52 1008.77 1009.00
1010.16 1009.33 1008.35 1007.26 1006.09 1004.91 1003.79 1002.79 1001.96 1001.36 1000.98 1000.83 1000.86 1001.03 1001.27 1001.52 1001.73 1001.88 1001.95 1001.94 1001.89 1001.84 1001.81 1001.87 1002.02 1002.29 1002.68 1003.16 1003.71 1004.29 1004.87 1005.42 1005.92 1006.37 1006.75 1007.09 1007.38 1007.66 1007.92 1008.17 1008.42 1008.67 1008.90 1009.12
1009.14 1008.28 1007.32 1006.28 1005.18 1004.09 1003.04 1002.12 1001.35 1000.79 1000.46 1000.34 1000.42 1000.64 1000.97 1001.33 1001.69 1002.00 1002.25 1002.41 1002.53 1002.60 1002.68 1002.80 1002.97 1003.22 1003.55 1003.95 1004.41 1004.90 1005.40 1005.88 1006.32 1006.73 1007.09 1007.40 1007.69 1007.95 1008.19 1008.43 1008.66 1008.88 1009.09 1009.28
1008.10 1007.27 1006.37 1005.42 1004.43 1003.45 1002.52 1001.68 1000.99 1000.47 1000.17 1000.07 1000.17 1000.43 1000.82 1001.27 1001.74 1002.19 1002.59 1002.92 1003.18 1003.39 1003.56 1003.73 1003.93 1004.15 1004.43 1004.76 1005.13 1005.53 1005.95 1006.36 1006.76 1007.13 1007.46 1007.77 1008.04 1008.29 1008.53 1008.74 1008.95 1009.14 1009.32 1009.49
1007.11 1006.34 1005.54 1004.71 1003.86 1003.01 1002.20 1001.46 1000.84 1000.37 1000.08 999.99 1000.10 1000.38 1000.79 1001.30 1001.85 1002.41 1002.93 1003.39 1003.78 1004.10 1004.37 1004.59 1004.80 1005.01 1005.24 1005.50 1005.80 1006.12 1006.47 1006.82 1007.18 1007.52 1007.85 1008.15 1008.43 1008.68 1008.91 1009.11 1009.30 1009.47 1009.62 1009.77
1006.20 1005.52 1004.84 1004.15 1003.45 1002.74 1002.05 1001.41 1000.85 1000.43 1000.16 1000.07 1000.16 1000.44 1000.86 1001.39 1002.00 1002.63 1003.24 1003.81 1004.30 1004.71 1005.04 1005.31 1005.53 1005.73 1005.92 1006.13 1006.36 1006.63 1006.92 1007.24 1007.57 1007.91 1008.23 1008.55 1008.83 1009.09 1009.32 1009.52 1009.70 1009.85 1009.99 1010.12
1005.37 1004.81 1004.26 1003.70 1003.14 1002.56 1001.99 1001.44 1000.95 1000.57 1000.31 1000.21 1000.30 1000.55 1000.97 1001.51 1002.14 1002.82 1003.49 1004.12 1004.69 1005.16 1005.55 1005.85 1006.08 1006.27 1006.44 1006.61 1006.81 1007.03 1007.30 1007.59 1007.92 1008.26 1008.60 1008.93 1009.24 1009.52 1009.76 1009.96 1010.13 1010.27 1010.40 1010.52
1004.64 1004.18 1003.75 1003.32 1002.88 1002.41 1001.94 1001.47 1001.04 1000.69 1000.45 1000.35 1000.43 1000.67 1001.08 1001.62 1002.26 1002.96 1003.67 1004.35 1004.95 1005.47 1005.89 1006.21 1006.45 1006.64 1006.80 1006.95 1007.12 1007.33 1007.59 1007.89 1008.22 1008.58 1008.95 1009.30 1009.64 1009.93 1010.18 1010.39 1010.56 1010.69 1010.80 1010.91
1004.01 1003.64 1003.29 1002.95 1002.60 1002.22 1001.82 1001.42 1001.05 1000.73 1000.51 1000.43 1000.50 1000.75 1001.15 1001.69 1002.34 1003.05 1003.78 1004.47 1005.10 1005.64 1006.08 1006.42 1006.67 1006.86 1007.01 1007.16 1007.34 1007.55 1007.81 1008.12 1008.48 1008.86 1009.25 1009.63 1009.98 1010.29 1010.54 1010.75 1010.91 1011.03 1011.13 1011.22
1003.50 1003.18 1002.88 1002.59 1002.28 1001.95 1001.60 1001.24 1000.91 1000.63 1000.44 1000.39 1000.49 1000.75 1001.16 1001.72 1002.38 1003.09 1003.83 1004.53 1005.17 1005.72 1006.16 1006.50 1006.76 1006.96 1007.12 1007.28 1007.46 1007.69 1007.97 1008.30 1008.67 1009.07 1009.48 1009.87 1010.22 1010.53 1010.78 1010.97 1011.12 1011.22 1011.30 1011.38
1003.13 1002.81 1002.51 1002.22 1001.91 1001.59 1001.25 1000.92 1000.61 1000.38 1000.24 1000.23 1000.37 1000.67 1001.12 1001.70 1002.37 1003.10 1003.84 1004.54 1005.18 1005.73 1006.17 1006.52 1006.78 1006.98 1007.16 1007.33 1007.53 1007.77 1008.07 1008.41 1008.79 1009.20 1009.60 1009.98 1010.32 1010.60 1010.83 1010.99 1011.11 1011.18 1011.24 1011.29
1002.91 1002.54 1002.20 1001.85 1001.51 1001.15 1000.80 1000.47 1000.20 1000.00 999.92 999.97 1000.17 1000.53 1001.03 1001.65 1002.35 1003.10 1003.84 1004.55 1005.18 1005.72 1006.16 1006.50 1006.76 1006.98 1007.16 1007.35 1007.56 1007.81 1008.11 1008.45 1008.83 1009.21 1009.59 1009.93 1010.23 1010.47 1010.65 1010.77 1010.84 1010.88 1010.90 1010.93
1002.81 1002.37 1001.94 1001.51 1001.09 1000.68 1000.30 999.96 999.71 999.56 999.53 999.66 999.94 1000.37 1000.93 1001.60 1002.34 1003.11 1003.86 1004.57 1005.19 1005.72 1006.15 1006.49 1006.76 1006.97 1007.16 1007.36 1007.57 1007.82 1008.11 1008.42 1008.76 1009.10 1009.43 1009.71 1009.95 1010.13 1010.24 1010.31 1010.33 1010.32 1010.31 1010.31
1002.81 1002.26 1001.73 1001.20 1000.69 1000.21 999.79 999.45 999.22 999.11 999.16 999.36 999.73 1000.24 1000.88 1001.60 1002.38 1003.17 1003.93 1004.63 1005.25 1005.77 1006.19 1006.52 1006.78 1006.99 1007.18 1007.36 1007.56 1007.79 1008.04 1008.32 1008.60 1008.87 1009.12 1009.33 1009.48 1009.58 1009.63 1009.63 1009.61 1009.56 1009.52 1009.50
1002.83 1002.19 1001.55 1000.93 1000.33 999.80 999.35 999.01 998.80 998.75 998.87 999.15 999.60 1000.20 1000.90 1001.67 1002.49 1003.29 1004.06 1004.75 1005.36 1005.86 1006.26 1006.58 1006.82 1007.02 1007.20 1007.36 1007.53 1007.72 1007.92 1008.13 1008.34 1008.53 1008.68 1008.80 1008.87 1008.89 1008.87 1008.82 1008.75 1008.68 1008.62 1008.58
1002.84 1002.12 1001.40 1000.70 1000.05 999.49 999.03 998.71 998.54 998.55 998.74 999.10 999.63 1000.29 1001.04 1001.85 1002.69 1003.50 1004.26 1004.93 1005.51 1005.99 1006.37 1006.66 1006.88 1007.06 1007.20 1007.33 1007.46 1007.59 1007.73 1007.86 1007.98 1008.07 1008.14 1008.17 1008.15 1008.11 1008.03 1007.94 1007.85 1007.77 1007.71 1007.67
1002.78 1002.02 1001.26 1000.54 999.88 999.32 998.89 998.61 998.50 998.57 998.83 999.26 999.84 1000.55 1001.33 1002.16 1002.99 1003.78 1004.51 1005.15 1005.69 1006.13 1006.47 1006.73 1006.92 1007.05 1007.16 1007.24 1007.31 1007.38 1007.44 1007.49 1007.52 1007.53 1007.50 1007.45 1007.38 1007.28 1007.18 1007.07 1006.98 1006.90 1006.86 1006.85
1002.66 1001.92 1001.18 1000.49 999.87 999.36 998.98 998.77 998.73 998.87 999.18 999.66 1000.27 1000.99 1001.77 1002.58 1003.37 1004.12 1004.79 1005.38 1005.86 1006.24 1006.53 1006.73 1006.87 1006.96 1007.02 1007.04 1007.05 1007.05 1007.03 1007.00 1006.95 1006.88 1006.79 1006.69 1006.57 1006.45 1006.34 1006.24 1006.17 1006.13 1006.12 1006.15
1002.53 1001.86 1001.20 1000.59 1000.06 999.64 999.35 999.21 999.24 999.44 999.80 1000.30 1000.91 1001.60 1002.34 1003.08 1003.80 1004.47 1005.06 1005.56 1005.96 1006.27 1006.49 1006.63 1006.71 1006.74 1006.74 1006.70 1006.65 1006.58 1006.49 1006.39 1006.27 1006.15 1006.01 1005.87 1005.74 1005.62 1005.53 1005.47 1005.44 1005.45 1005.50 1005.57
Thickness
5768 5778 5783 5782 5784 5789 5782 5773 5762 5766 5768 5777 5786 5792 5794 5797 5797 5796 5793 5792 5792 5791 5788 5787 5785 5784 5782 5780 5777 5774 5768 5763 5759 5757 5754 5751 5748 5746 5743 5740 5737 5733 5730 5727
5760 5774 5775 5773 5779 5782 5780 5778 5772 5769 5766 5781 5787 5789 5786 5786 5787 5784 5783 5783 5784 5785 5782 5779 5778 5777 5775 5773 5771 5767 5762 5758 5755 5752 5748 5745 5743 5740 5737 5734 5731 5727 5724 5721
5737 5755 5758 5746 5764 5769 5766 5769 5767 5756 5764 5775 5774 5775 5774 5776 5776 5774 5773 5773 5774 5775 5775 5773 5772 5771 5768 5766 5764 5761 5756 5753 5749 5746 5742 5739 5737 5734 5731 5727 5724 5720 5718 5715
5723 5733 5720 5741 5768 5770 5761 5760 5765 5764 5766 5770 5769 5769 5771 5772 5769 5767 5767 5765 5765 5766 5766 5766 5766 5763 5762 5759 5756 5752 5748 5745 5742 5739 5735 5733 5730 5727 5724 5721 5717 5714 5711 5709
5708 5708 5717 5740 5755 5758 5750 5743 5759 5758 5761 5762 5765 5761 5757 5763 5764 5761 5761 5761 5761 5762 5761 5759 5758 5756 5752 5750 5747 5743 5740 5737 5735 5732 5728 5725 5722 5719 5717 5713 5710 5708 5706 5703
5704 5703 5700 5722 5749 5761 5750 5728 5751 5754 5752 5752 5751 5735 5740 5754 5756 5755 5755 5755 5756 5755 5753 5750 5749 5747 5743 5740 5737 5734 5732 5731 5728 5726 5722 5719 5715 5712 5710 5707 5704 5702 5699 5697
5697 5695 5703 5728 5745 5749 5719 5719 5743 5747 5746 5745 5739 5738 5743 5747 5748 5746 5747 5748 5748 5747 5743 5741 5740 5738 5734 5731 5728 5728 5725 5722 5720 5718 5715 5712 5709 5705 5701 5698 5695 5693 5691 5690
5689 5685 5692 5728 5733 5722 5719 5734 5737 5737 5739 5738 5737 5738 5737 5737 5736 5737 5737 5738 5737 5734 5733 5733 5731 5728 5724 5721 5721 5719 5716 5713 5710 5708 5706 5704 5699 5696 5693 5689 5685 5684 5682 5680
5692 5693 5710 5722 5723 5726 5728 5726 5729 5729 5732 5732 5730 5728 5728 5727 5727 5727 5726 5725 5724 5722 5721 5721 5720 5718 5713 5713 5712 5709 5704 5701 5700 5698 5695 5693 5690 5686 5683 5680 5677 5675 5672 5671
5689 5697 5706 5713 5717 5719 5721 5721 5724 5725 5726 5724 5721 5721 5719 5718 5717 5717 5716 5715 5713 5711 5708 5707 5708 5707 5704 5703 5701 5697 5693 5691 5689 5688 5685 5683 5681 5678 5675 5672 5669 5667 5665 5663
5680 5689 5695 5701 5706 5711 5714 5716 5717 5718 5719 5717 5714 5711 5710 5707 5707 5706 5705 5705 5702 5699 5697 5696 5696 5694 5694 5692 5689 5685 5682 5681 5679 5677 5675 5672 5671 5669 5667 5666 5664 5661 5658 5656
5670 5681 5680 5686 5697 5703 5704 5704 5707 5707 5707 5707 5706 5703 5701 5698 5696 5695 5694 5693 5691 5688 5686 5686 5685 5682 5682 5681 5679 5675 5671 5671 5670 5668 5666 5663 5661 5659 5659 5657 5656 5655 5653 5651
5680 5684 5683 5688 5692 5694 5695 5697 5699 5699 5697 5695 5696 5695 5691 5687 5686 5685 5684 5682 5680 5678 5677 5676 5675 5673 5672 5671 5669 5666 5663 5661 5660 5658 5656 5654 5651 5648 5647 5647 5646 5645 5644 5642
5681 5680 5676 5678 5680 5685 5687 5689 5690 5690 5689 5687 5686 5684 5682 5679 5677 5676 5674 5674 5672 5670 5668 5666 5664 5663 5662 5661 5659 5656 5654 5653 5651 5648 5647 5644 5642 5640 5638 5636 5635 5635 5635 5634
5673 5673 5670 5672 5675 5677 5679 5678 5676 5675 5676 5675 5674 5673 5672 5670 5668 5667 5666 5665 5663 5660 5658 5656 5653 5652 5652 5650 5648 5646 5643 5642 5642 5640 5638 5636 5634 5631 5630 5628 5627 5626 5626 5626
5666 5666 5666 5664 5665 5668 5669 5668 5666 5665 5666 5664 5663 5663 5663 5661 5659 5658 5657 5655 5651 5648 5647 5646 5644 5643 5643 5642 5640 5637 5635 5635 5634 5632 5629 5627 5626 5623 5621 5620 5619 5618 5618 5618
5656 5655 5655 5654 5656 5658 5660 5661 5660 5658 5658 5656 5655 5654 5653 5651 5649 5647 5646 5644 5642 5640 5639 5637 5635 5634 5633 5632 5630 5628 5627 5626 5626 5623 5621 5619 5617 5616 5614 5612 5611 5611 5611 5612
5654 5654 5653 5651 5650 5651 5653 5654 5653 5652 5650 5648 5646 5645 5644 5641 5638 5637 5635 5634 5631 5630 5629 5628 5627 5625 5624 5623 5621 5620 5618 5617 5615 5614 5612 5611 5609 5608 5606 5605 5604 5604 5603 5603
5647 5647 5647 5648 5647 5646 5645 5644 5644 5644 5643 5640 5637 5635 5634 5633 5631 5628 5626 5624 5621 5619 5619 5619 5619 5617 5615 5614 5613 5611 5609 5608 5606 5605 5604 5603 5602 5601 5600 5599 5598 5597 5596 5595
5640 5641 5641 5640 5641 5639 5638 5637 5637 5636 5634 5632 5629 5627 5625 5624 5622 5620 5617 5614 5612 5612 5612 5611 5610 5609 5607 5606 5605 5602 5601 5599 5598 5597 5596 5595 5595 5594 5593 5593 5591 5590 5589 5588
5631 5632 5632 5631 5631 5631 5630 5630 5628 5626 5625 5623 5621 5619 5617 5616 5614 5612 5608 5605 5606 5606 5605 5604 5602 5601 5600 5599 5598 5595 5594 5592 5591 5590 5589 5588 5588 5587 5586 5586 5585 5583 5582 5581
5623 5623 5624 5623 5623 5622 5622 5622 5621 5619 5617 5615 5613 5612 5610 5607 5606 5604 5602 5600 5600 5600 5598 5596 5595 5594 5593 5592 5590 5589 5587 5586 5585 5584 5583 5582 5580 5579 5579 5579 5577 5576 5575 5574
5615 5616 5616 5617 5617 5615 5615 5614 5614 5612 5610 5608 5606 5605 5603 5601 5599 5596 5593 5594 5594 5593 5592 5590 5590 5589 5588 5585 5583 5582 5581 5580 5579 5578 5577 5576 5575 5574 5573 5572 5570 5569 5568 5566
5609 5610 5611 5611 5611 5609 5607 5607 5607 5606 5604 5603 5602 5600 5598 5595 5592 5592 5591 5590 5589 5588 5586 5585 5584 5583 5581 5578 5577 5576 5574 5573 5573 5572 5571 5570 5570 5569 5567 5566 5564 5562 5561 5560
5604 5604 5604 5603 5602 5602 5602 5602 5601 5600 5599 5597 5596 5595 5593 5591 5588 5587 5586 5585 5584 5582 5580 5579 5577 5576 5574 5572 5571 5569 5568 5568 5567 5566 5565 5564 5563 5562 5561 5559 5557 5555 5553 5552
5597 5597 5597 5597 5597 5597 5597 5595 5594 5593 5591 5590 5589 5589 5588 5586 5585 5583 5581 5580 5578 5576 5573 5572 5570 5569 5567 5566 5564 5563 5562 5561 5561 5561 5559 5558 5556 5555 5553 5552 5550 5548 5546 5544
5591 5591 5591 5590 5591 5592 5591 5590 5588 5586 5585 5584 5583 5582 5581 5580 5578 5577 5576 5574 5571 5569 5567 5566 5564 5562 5560 5559 5557 5556 5555 5554 5554 5553 5552 5551 5549 5547 5546 5545 5543 5541 5539 5538